DECAYED

COSMOS 2251 DEB, 34674 (Decayed)

Orbit data source: Space-Track

COSMOS 2251 DEB, 34674 was space debris in LEO originally from a launch on Wed, 16 Jun 1993 UTC launched from the Plesetsk Missile And Space Complex (PKMTR). The debris from Iridium 33, an American commercial communications satellite, has been tracked extensively since its accidental collision with the defunct Russian satellite Cosmos 2251 in 2009. This event, occurring at high speed in low Earth orbit (LEO), generated thousands of pieces of space debris, significantly increasing the risk of further collisions. The Iridium 33 debris cloud has impacted space traffic management and orbital debris mitigation strategies, making it a subject of ongoing study in space situational awareness.

Loading next visibility...
Identifier
34674, 1993-036XU
Orbit
Decayed
Country
Flag of CISCIS
Related business
Manufacturer
Unknown
Mission
Decayed spacecraft
Bus & Motor
Unknown
Mass
Unknown
Launch date (UTC)
1993-06-16 (33 years ago)
Launch vehicle
Unknown
Launch site
Plesetsk Missile And Space Complex (PKMTR)
Object type
Payload
Rocket body
Debris
Shape & HBR
Unknown shape, 0.1 m
Radar Cross Section
Medium (>0.1 m² and <1 m²)

Expand to show TLE details & history
Last TLE update: 1 year ago

TLE from 1 year ago
0 COSMOS 2251 DEB
1 34674U 93036XU  25029.05627941  .05874659  81638-1  11624-1 0  9993
2 34674  73.9224  36.8881 0005971  78.8781 281.3131 16.05611269846990
Epoch: 2025-01-29T01:21Z
TLE epoch observation values (Epoch: 2025-01-29T01:21:02.541Z)
Latitude
-0.00003°
Longitude
-111.92566°
Altitude
260.941 km
Speed
7.751 km/s
True Right ascension
02h 27m 33s
True Declination
0° 00' 00"
Sunlit
Object was in daylight at epoch
Visualization orbit readout
Latitude
Unknown
Longitude
Unknown
Altitude
Unknown
Speed
Unknown
Apparent Right ascension
Unknown
Apparent Declination
Unknown
Sunlit
N/A
Visualization observer readout
Local Sidereal Time
01:14:34
Azimuth
Unknown
Elevation
Unknown
Doppler factor
Unknown
Orbital elements
Apogee altitude
260.322 km
Perigee altitude
252.399 km
Semi-major axis
6,634.497 km
Eccentricity
0.0006
Inclination
73.9224°
RAAN
36.8881°
Arg. of periapsis
78.8781°
True anomaly
281.246°
Mean anomaly
281.3131°
Eccentric anomaly
281.27955°
Mean motion
4.01635 °/min
Orbital period
89.63 mins
BSTAR
0.011624

Documentation

Showing up to 5 results
|